Regional Weather Roundup
Issued by NWS

Home | Current Version | Previous Version | Graphics & Text | Print | Product List | Glossary On
Versions: 1 2 3 4 5 6 7 8 9 10 11 12 13 14 15 16 17 18 19 20 21 22 23 24 25 26 27 28 29 30 31 32 33 34 35 36 37 38 39 40 41 42 43 44 45 46 47 48 49 50
801
ASUS45 KBOI 210810
RWRID

IDAHO REGIONAL WEATHER ROUNDUP
NATIONAL WEATHER SERVICE BOISE ID
200 AM MDT MON MAY 21 2018

NOTE: "FAIR" INDICATES FEW OR NO CLOUDS BELOW 12000 FEET
WITH NO SIGNIFICANT WEATHER AND/OR OBSTRUCTIONS TO VISIBILITY

IDZ012-014-210900-
SOUTHWEST IDAHO


CITY           SKY/WX    TMP DP  RH WIND       PRES   REMARKS
BOISE          CLOUDY    59  54  83 CALM      29.90S
CALDWELL       CLOUDY    57  54  89 NE3       29.90R
MOUNTAIN HOME  PTCLDY    50  50 100 CALM      29.91S
$$

IDZ016-017-210900-
SOUTHCENTRAL IDAHO


CITY           SKY/WX    TMP DP  RH WIND       PRES   REMARKS
BURLEY         MOCLDY    52  47  83 S3        29.93S
JEROME         CLOUDY    53  50  89 SE5       29.94S
TWIN FALLS     MOCLDY    48  48 100 S3        29.94S
$$

IDZ019>023-210900-
SOUTHEAST IDAHO


CITY           SKY/WX    TMP DP  RH WIND       PRES   REMARKS
IDAHO FALLS    CLOUDY    51  50  96 W3        29.97F
POCATELLO      MOCLDY    53  49  86 SW6       29.96R
REXBURG        MOCLDY    51  48  89 CALM      29.98R
$$

IDZ006-010-011-018-031-032-210900-
CENTRAL IDAHO MOUNTAINS


CITY           SKY/WX    TMP DP  RH WIND       PRES   REMARKS
MCCALL         CLOUDY    51  46  83 N5        29.94F
HAILEY         CLOUDY    50  45  81 NW5       30.00F
STANLEY          N/A     44  43  96 S3        30.03S
SALMON         CLOUDY    56  49  77 CALM      29.95S
CHALLIS        MOCLDY    51  47  86 CALM      29.97F
$$

IDZ002-004-006-007-026-210900-
NORTHERN IDAHO


CITY           SKY/WX    TMP DP  RH WIND       PRES   REMARKS
LEWISTON       CLOUDY    63  56  78 CALM      29.88S
LOWELL           N/A     57  56  96 CALM      29.90S
COEUR D`ALENE  CLOUDY    61  52  72 S7        29.90R
MULLAN PASS    CLOUDY    48  41  76 NW7       30.00S
$$




USA.gov is the U.S. government's official web portal to all federal, state and local government web resources and services.